User: anonymous   Login
Location: Oshawa
(43.9000°N, 78.8670°W)
Time: 23:11:24
(UTC-04:00)
Language:

SPOT 5 - Orbit

View from above orbital plane
View from above orbital plane
View from above satellite
View from above satellite

Ground track
Ground track

The orbit data is extracted from the following two-line orbital elements,

1 27421U 02021A   17115.83692753 -.00000057 +00000-0 -12327-5 0  9993
2 27421 098.4104 179.0637 0136373 128.4588 232.8916 14.51853633778075
Epoch (UTC): 25 April 2017 20:05:10
Eccentricity: 0.0136373
inclination: 98.4104°
perigee height: 623 km
apogee height: 816 km
right ascension of ascending node: 179.0637°
argument of perigee: 128.4588°
revolutions per day: 14.51853633
mean anomaly at epoch: 232.8916°
orbit number at epoch: 77807

The dashed part of the orbit path shows where the satellite is in the earth's shadow,  

DLR